Aérodrome :
LOGIN :

S'inscrire | Disclaimer

   EN    FR    IT 

 










Légende :    VFR   VFR Marginal   IFR   IFR Intensif   IFR Très Intensif
Visi : 
Plafond : 
>= 8 km
>= 3000ft
5 à 8 km
1000 à 3000 ft
1500m à 5 km
500 à 1000 ft
800 à 1500m
200 à 500 ft
< 800m
< 200 ft
Symboles :   Orages  Brouillard  Fortes neiges  Fortes précipitations  Vent > 20 kt
SIGMETs :   Divers  Orages  Givrage  Turbulence  Onde Orograph.  Cendres Volcan.







- Altitude de l'aérodrome : 1766 ft


ETHL - Laupheim AB

DERNIER METAR :
  • 230220Z 23003KT 9999 SCT240 11/09 Q1018 BLU+

METARs EXPIRÉS :
  • 230120Z 22003KT 9999 FEW270 11/10 Q1018 BLU+
  • 230020Z VRB01KT 9999 FEW270 12/10 Q1018 BLU+

TAF AMD TAF ETHL
Valide du 22 à 21h jusqu'au 23 à 06h UTC


222130Z 2221/2306 VRB03KT 9999 NSW FEW050 CANCEL 2200
Pas de NOTAMs connus pour ce terrain.



MET'MAP, la Météo Aéronautique d'un coup d'oeil ! - Copyright ORBIFLY Décembre 2007 - Disclaimer

ORBIFLY MET'MAP TEAM :

Programmation & Développement : Alexandra Zaïnal
Conception & Développement : Baudouin d'Aumeries
Co-Programmation & Développement : Marc-Olivier Méhu
Soutien technique & logistique : Manuel Goepfert

Contact : metmap@orbifly.com




SOURCES & CREDITS :

   NOAA